DLH4XK EDDF-EDDH

Flight info

Callsign DLH4XK
Flight time 0h 51m
Altitude 33000
Route MARUN2D/07C MARUN Y150 TOLGI DCT SAS/N0471F320 P605 NOLGO NOLGO3D
Aircraft A346/H-SDE2E3FGHIJ3J4J5M1RWXY/LB1D1

Departure

Time 2026-05-07 19:11
Airport Frankfurt Main Airport (EDDF)

Arrival

Time 2026-05-07 20:02
Airport Hamburg Helmut Schmidt Airport (EDDH)
Time Latitude Longitude Altitude Speed Heading
2026-05-07 18:29 50.04775 8.56497 364 ft 0 kts 339°
2026-05-07 18:51 50.04764 8.56503 364 ft 4 kts 338°
2026-05-07 18:51 50.04739 8.56519 364 ft 4 kts 337°
2026-05-07 18:51 50.04714 8.56534 368 ft 4 kts 345°
2026-05-07 18:51 50.04692 8.56538 370 ft 4 kts 12°
2026-05-07 18:52 50.04675 8.56527 368 ft 4 kts 24°
2026-05-07 18:52 50.04649 8.56511 368 ft 4 kts 22°
2026-05-07 18:52 50.04632 8.56499 368 ft 0 kts 25°
2026-05-07 18:52 50.04648 8.56506 364 ft 4 kts
2026-05-07 18:53 50.04663 8.56499 364 ft 4 kts 328°
2026-05-07 18:53 50.04676 8.56473 364 ft 4 kts 298°
2026-05-07 18:53 50.04679 8.56450 364 ft 4 kts 261°
2026-05-07 18:53 50.04671 8.56421 369 ft 3 kts 243°
2026-05-07 18:54 50.04656 8.56400 368 ft 4 kts 211°
2026-05-07 18:54 50.04643 8.56391 369 ft 0 kts 198°
2026-05-07 18:54 50.04658 8.56382 363 ft 0 kts 248°
2026-05-07 18:55 50.04660 8.56390 364 ft 0 kts 248°
2026-05-07 18:57 50.04656 8.56377 364 ft 3 kts 248°
2026-05-07 18:57 50.04643 8.56327 368 ft 7 kts 248°
2026-05-07 18:57 50.04620 8.56238 365 ft 11 kts 248°
2026-05-07 18:58 50.04590 8.56119 369 ft 12 kts 249°
2026-05-07 18:58 50.04565 8.56016 367 ft 10 kts 246°
2026-05-07 18:58 50.04510 8.55951 371 ft 10 kts 199°
2026-05-07 18:58 50.04436 8.55917 365 ft 13 kts 192°
2026-05-07 18:59 50.04338 8.55935 367 ft 16 kts 162°
2026-05-07 18:59 50.04256 8.55952 365 ft 13 kts 202°
2026-05-07 18:59 50.04175 8.55926 364 ft 12 kts 163°
2026-05-07 18:59 50.04154 8.55938 361 ft 0 kts 159°
2026-05-07 19:01 50.04153 8.55939 365 ft 1 kts 159°
2026-05-07 19:01 50.04122 8.55956 365 ft 9 kts 159°
2026-05-07 19:01 50.04057 8.55954 367 ft 11 kts 224°
2026-05-07 19:01 50.04015 8.55815 363 ft 18 kts 249°
2026-05-07 19:02 50.03969 8.55616 365 ft 21 kts 250°
2026-05-07 19:02 50.03913 8.55385 365 ft 24 kts 249°
2026-05-07 19:02 50.03851 8.55128 364 ft 26 kts 249°
2026-05-07 19:02 50.03786 8.54853 363 ft 27 kts 249°
2026-05-07 19:03 50.03726 8.54602 356 ft 18 kts 249°
2026-05-07 19:03 50.03713 8.54550 352 ft 0 kts 249°
2026-05-07 19:03 50.03712 8.54546 352 ft 1 kts 249°
2026-05-07 19:04 50.03702 8.54503 360 ft 7 kts 249°
2026-05-07 19:04 50.03679 8.54407 360 ft 9 kts 249°
2026-05-07 19:04 50.03662 8.54347 358 ft 8 kts 240°
2026-05-07 19:04 50.03610 8.54316 353 ft 8 kts 179°
2026-05-07 19:05 50.03596 8.54321 350 ft 0 kts 161°
2026-05-07 19:07 50.03566 8.54337 353 ft 11 kts 161°
2026-05-07 19:07 50.03500 8.54385 359 ft 6 kts 115°
2026-05-07 19:08 50.03501 8.54458 357 ft 5 kts 74°
2026-05-07 19:08 50.03506 8.54480 352 ft 0 kts 69°
2026-05-07 19:10 50.03511 8.54498 359 ft 11 kts 69°
2026-05-07 19:10 50.03621 8.54960 357 ft 81 kts 70°
2026-05-07 19:11 50.03895 8.56108 365 ft 142 kts 69°
2026-05-07 19:11 50.04296 8.57798 479 ft 180 kts 69°
2026-05-07 19:11 50.04736 8.59626 1250 ft 178 kts 69°
2026-05-07 19:11 50.05317 8.62011 2300 ft 177 kts 69°
2026-05-07 19:12 50.05619 8.63246 2681 ft 184 kts 69°
2026-05-07 19:12 50.06097 8.65164 3179 ft 196 kts 68°
2026-05-07 19:12 50.06597 8.67210 3695 ft 208 kts 69°
2026-05-07 19:12 50.07101 8.69408 4172 ft 223 kts 69°
2026-05-07 19:13 50.07847 8.71606 4580 ft 243 kts 46°
2026-05-07 19:13 50.09336 8.73062 5130 ft 260 kts 21°
2026-05-07 19:13 50.11059 8.74037 5815 ft 270 kts 19°
2026-05-07 19:13 50.12824 8.75043 6802 ft 270 kts 20°
2026-05-07 19:14 50.14583 8.76111 7761 ft 273 kts 21°
2026-05-07 19:14 50.16359 8.77248 8668 ft 277 kts 21°
2026-05-07 19:14 50.18149 8.78433 9568 ft 282 kts 22°
2026-05-07 19:14 50.19970 8.79657 10371 ft 289 kts 22°
2026-05-07 19:15 50.21877 8.80945 10884 ft 310 kts 22°
2026-05-07 19:15 50.23954 8.82352 11082 ft 341 kts 22°
2026-05-07 19:15 50.26276 8.83738 11090 ft 372 kts 14°
2026-05-07 19:15 50.28887 8.84340 11645 ft 382 kts
2026-05-07 19:16 50.31520 8.84095 12444 ft 379 kts 352°
2026-05-07 19:16 50.34139 8.83561 12910 ft 380 kts 351°
2026-05-07 19:16 50.36773 8.82973 13068 ft 381 kts 351°
2026-05-07 19:16 50.39376 8.82392 13068 ft 381 kts 351°
2026-05-07 19:17 50.41998 8.81818 13071 ft 381 kts 351°
2026-05-07 19:17 50.44626 8.81250 13076 ft 381 kts 351°
2026-05-07 19:17 50.47261 8.80685 13075 ft 381 kts 351°
2026-05-07 19:17 50.49901 8.80121 13146 ft 387 kts 351°
2026-05-07 19:18 50.52609 8.79541 13819 ft 393 kts 351°
2026-05-07 19:18 50.55303 8.78929 14923 ft 390 kts 349°
2026-05-07 19:18 50.57977 8.78098 15818 ft 393 kts 346°
2026-05-07 19:18 50.60649 8.77006 16573 ft 398 kts 343°
2026-05-07 19:19 50.63328 8.75797 17336 ft 403 kts 342°
2026-05-07 19:19 50.66036 8.74552 18097 ft 407 kts 342°
2026-05-07 19:19 50.68769 8.73295 18843 ft 411 kts 342°
2026-05-07 19:19 50.71535 8.72027 19544 ft 416 kts 342°
2026-05-07 19:20 50.74335 8.70745 20233 ft 420 kts 342°
2026-05-07 19:20 50.77145 8.69632 20872 ft 426 kts 351°
2026-05-07 19:20 50.80122 8.69727 21486 ft 433 kts
2026-05-07 19:20 50.83023 8.71302 22154 ft 439 kts 27°
2026-05-07 19:21 50.85456 8.74147 22764 ft 445 kts 44°
2026-05-07 19:21 50.87423 8.77980 23397 ft 449 kts 52°
2026-05-07 19:21 50.89299 8.81985 23981 ft 454 kts 52°
2026-05-07 19:21 50.91189 8.86026 24532 ft 458 kts 52°
2026-05-07 19:22 50.93107 8.90090 25103 ft 462 kts 52°
2026-05-07 19:22 50.95049 8.94175 25673 ft 465 kts 52°
2026-05-07 19:22 50.97007 8.98284 26239 ft 468 kts 52°
2026-05-07 19:22 50.98982 9.02436 26769 ft 471 kts 52°
2026-05-07 19:23 51.00966 9.06612 27284 ft 474 kts 52°
2026-05-07 19:23 51.02963 9.10824 27797 ft 477 kts 52°
2026-05-07 19:23 51.04957 9.15042 28414 ft 477 kts 52°
2026-05-07 19:23 51.06978 9.19211 29160 ft 473 kts 49°
2026-05-07 19:24 51.09278 9.22922 29885 ft 469 kts 40°
2026-05-07 19:24 51.11866 9.26045 30584 ft 465 kts 32°
2026-05-07 19:24 51.14679 9.28534 31221 ft 462 kts 24°
2026-05-07 19:24 51.17637 9.30353 31748 ft 461 kts 16°
2026-05-07 19:25 51.20762 9.31616 32067 ft 465 kts 11°
2026-05-07 19:25 51.23944 9.32692 32088 ft 468 kts 10°
2026-05-07 19:25 51.27153 9.33741 32322 ft 473 kts 10°
2026-05-07 19:25 51.30377 9.34815 32860 ft 471 kts 11°
2026-05-07 19:26 51.33583 9.35910 33090 ft 472 kts 11°
2026-05-07 19:26 51.36804 9.37025 33092 ft 473 kts 11°
2026-05-07 19:26 51.43253 9.39279 33096 ft 473 kts 11°
2026-05-07 19:27 51.49653 9.41522 33098 ft 473 kts 11°
2026-05-07 19:27 51.56084 9.43782 33102 ft 473 kts 11°
2026-05-07 19:28 51.62543 9.46057 33100 ft 473 kts 11°
2026-05-07 19:28 51.68976 9.48331 33102 ft 473 kts 11°
2026-05-07 19:29 51.75422 9.50617 33098 ft 473 kts 12°
2026-05-07 19:29 51.81790 9.53479 33098 ft 474 kts 18°
2026-05-07 19:30 51.87926 9.57443 33099 ft 474 kts 24°
2026-05-07 19:30 51.93837 9.62229 33100 ft 475 kts 26°
2026-05-07 19:31 51.99668 9.67107 33101 ft 474 kts 26°
2026-05-07 19:31 52.05535 9.72014 33100 ft 474 kts 26°
2026-05-07 19:32 52.11407 9.76925 33100 ft 474 kts 26°
2026-05-07 19:32 52.17287 9.81854 33100 ft 474 kts 26°
2026-05-07 19:33 52.23270 9.86497 33100 ft 474 kts 20°
2026-05-07 19:33 52.29621 9.89392 32465 ft 474 kts
2026-05-07 19:34 52.32837 9.90187 31853 ft 473 kts
2026-05-07 19:34 52.36094 9.90885 31221 ft 472 kts
2026-05-07 19:34 52.39342 9.91561 30593 ft 470 kts
2026-05-07 19:34 52.42589 9.92241 29965 ft 469 kts
2026-05-07 19:35 52.45822 9.92927 29340 ft 467 kts
2026-05-07 19:35 52.49039 9.93618 28712 ft 466 kts
2026-05-07 19:35 52.52266 9.94315 28076 ft 468 kts
2026-05-07 19:35 52.55498 9.95018 27446 ft 469 kts
2026-05-07 19:36 52.58733 9.95723 26815 ft 467 kts
2026-05-07 19:36 52.61939 9.96427 26187 ft 464 kts
2026-05-07 19:36 52.65137 9.97129 25564 ft 462 kts
2026-05-07 19:36 52.68313 9.97828 24921 ft 459 kts
2026-05-07 19:37 52.71471 9.98525 24291 ft 456 kts
2026-05-07 19:37 52.74615 9.99219 23661 ft 454 kts
2026-05-07 19:37 52.77732 9.99907 23032 ft 451 kts
2026-05-07 19:37 52.80838 10.00592 22409 ft 448 kts
2026-05-07 19:38 52.83918 10.01274 21720 ft 444 kts
2026-05-07 19:38 52.86965 10.01949 21066 ft 438 kts
2026-05-07 19:38 52.89959 10.02616 20431 ft 430 kts
2026-05-07 19:38 52.92901 10.03272 19856 ft 426 kts
2026-05-07 19:39 52.95830 10.03925 19169 ft 423 kts
2026-05-07 19:39 52.98700 10.04565 18547 ft 418 kts
2026-05-07 19:39 53.01577 10.05209 17915 ft 413 kts
2026-05-07 19:39 53.04446 10.05851 17276 ft 408 kts
2026-05-07 19:40 53.07212 10.06469 16654 ft 404 kts
2026-05-07 19:40 53.09985 10.07092 16024 ft 400 kts
2026-05-07 19:40 53.12748 10.07714 15383 ft 396 kts
2026-05-07 19:40 53.15472 10.08319 14758 ft 393 kts
2026-05-07 19:41 53.18174 10.08905 14125 ft 389 kts
2026-05-07 19:41 53.20847 10.09474 13497 ft 385 kts
2026-05-07 19:41 53.23497 10.10033 12865 ft 382 kts
2026-05-07 19:41 53.26122 10.10582 12281 ft 377 kts
2026-05-07 19:42 53.28680 10.11142 12010 ft 364 kts 10°
2026-05-07 19:42 53.31011 10.12544 11699 ft 352 kts 31°
2026-05-07 19:42 53.32841 10.15174 11270 ft 345 kts 49°
2026-05-07 19:42 53.34321 10.18324 10819 ft 338 kts 53°
2026-05-07 19:43 53.35703 10.21484 10372 ft 333 kts 54°
2026-05-07 19:43 53.37052 10.24601 9914 ft 328 kts 54°
2026-05-07 19:43 53.38368 10.27642 9472 ft 324 kts 54°
2026-05-07 19:43 53.39661 10.30624 9272 ft 305 kts 54°
2026-05-07 19:44 53.40868 10.33399 9211 ft 284 kts 54°
2026-05-07 19:44 53.42014 10.36032 8909 ft 277 kts 54°
2026-05-07 19:44 53.43151 10.38642 8515 ft 276 kts 54°
2026-05-07 19:44 53.44290 10.41254 8088 ft 278 kts 54°
2026-05-07 19:45 53.45436 10.43884 7663 ft 279 kts 54°
2026-05-07 19:45 53.46584 10.46516 7208 ft 279 kts 54°
2026-05-07 19:45 53.47779 10.48938 7105 ft 259 kts 39°
2026-05-07 19:45 53.49333 10.50179 7034 ft 246 kts 11°
2026-05-07 19:46 53.51022 10.49936 6748 ft 249 kts 341°
2026-05-07 19:46 53.52435 10.48243 6404 ft 255 kts 310°
2026-05-07 19:46 53.53169 10.45521 6073 ft 260 kts 279°
2026-05-07 19:46 53.53017 10.42503 5746 ft 262 kts 252°
2026-05-07 19:47 53.52494 10.39569 5439 ft 261 kts 265°
2026-05-07 19:47 53.52715 10.36597 5106 ft 256 kts 296°
2026-05-07 19:47 53.53729 10.34236 4985 ft 248 kts 319°
2026-05-07 19:47 53.55018 10.32298 4977 ft 248 kts 323°
2026-05-07 19:48 53.56350 10.30443 4971 ft 248 kts 324°
2026-05-07 19:48 53.57689 10.28606 4965 ft 248 kts 324°
2026-05-07 19:48 53.59033 10.26765 4968 ft 248 kts 324°
2026-05-07 19:48 53.60327 10.24832 4952 ft 251 kts 310°
2026-05-07 19:49 53.61044 10.22188 4954 ft 256 kts 279°
2026-05-07 19:49 53.60892 10.19208 4958 ft 259 kts 249°
2026-05-07 19:49 53.59986 10.16601 4978 ft 258 kts 232°
2026-05-07 19:49 53.58873 10.14218 4972 ft 258 kts 230°
2026-05-07 19:50 53.57726 10.11885 4968 ft 258 kts 229°
2026-05-07 19:50 53.56574 10.09565 4968 ft 258 kts 229°
2026-05-07 19:50 53.55418 10.07243 4964 ft 258 kts 229°
2026-05-07 19:50 53.54278 10.04954 4957 ft 250 kts 229°
2026-05-07 19:51 53.53165 10.02722 4961 ft 248 kts 229°
2026-05-07 19:51 53.52056 10.00499 4966 ft 248 kts 229°
2026-05-07 19:51 53.50949 9.98279 4967 ft 248 kts 229°
2026-05-07 19:51 53.49842 9.96054 4966 ft 246 kts 229°
2026-05-07 19:52 53.48765 9.93888 4862 ft 238 kts 229°
2026-05-07 19:52 53.47722 9.91788 4733 ft 230 kts 229°
2026-05-07 19:52 53.46719 9.89767 4573 ft 222 kts 229°
2026-05-07 19:52 53.45731 9.87775 4232 ft 222 kts 229°
2026-05-07 19:53 53.44740 9.85778 3905 ft 222 kts 229°
2026-05-07 19:53 53.43756 9.83795 3614 ft 220 kts 229°
2026-05-07 19:53 53.42776 9.81821 3314 ft 219 kts 229°
2026-05-07 19:53 53.41804 9.79861 3034 ft 217 kts 229°
2026-05-07 19:54 53.40853 9.77947 2974 ft 217 kts 229°
2026-05-07 19:54 53.39886 9.76001 2972 ft 217 kts 229°
2026-05-07 19:54 53.38918 9.74059 2967 ft 216 kts 229°
2026-05-07 19:54 53.37953 9.72122 2966 ft 216 kts 229°
2026-05-07 19:55 53.37106 9.70039 2951 ft 217 kts 249°
2026-05-07 19:55 53.36952 9.68392 2949 ft 217 kts 274°
2026-05-07 19:55 53.37470 9.66078 2949 ft 213 kts 310°
2026-05-07 19:55 53.38585 9.64499 2969 ft 209 kts 338°
2026-05-07 19:56 53.39986 9.64246 2966 ft 203 kts 13°
2026-05-07 19:56 53.41330 9.64937 2987 ft 202 kts 22°
2026-05-07 19:56 53.42639 9.65778 2974 ft 201 kts 24°
2026-05-07 19:56 53.43944 9.66638 2968 ft 201 kts 24°
2026-05-07 19:57 53.45247 9.67496 2966 ft 201 kts 24°
2026-05-07 19:57 53.46549 9.68354 2970 ft 201 kts 24°
2026-05-07 19:57 53.47819 9.69313 2968 ft 200 kts 32°
2026-05-07 19:57 53.48905 9.70663 2943 ft 187 kts 44°
2026-05-07 19:58 53.49794 9.72152 2940 ft 178 kts 48°
2026-05-07 19:58 53.50634 9.73686 2968 ft 177 kts 50°
2026-05-07 19:58 53.51442 9.75251 2960 ft 177 kts 51°
2026-05-07 19:58 53.52234 9.76836 2956 ft 177 kts 52°
2026-05-07 19:59 53.53011 9.78415 2780 ft 177 kts 52°
2026-05-07 19:59 53.53791 9.80010 2546 ft 176 kts 52°
2026-05-07 19:59 53.54568 9.81602 2319 ft 175 kts 51°
2026-05-07 19:59 53.55354 9.83209 2087 ft 175 kts 51°
2026-05-07 20:00 53.56109 9.84748 1854 ft 168 kts 51°
2026-05-07 20:00 53.56831 9.86218 1616 ft 157 kts 51°
2026-05-07 20:00 53.57504 9.87589 1406 ft 152 kts 50°
2026-05-07 20:00 53.58168 9.88939 1208 ft 149 kts 51°
2026-05-07 20:01 53.58828 9.90303 1020 ft 152 kts 51°
2026-05-07 20:01 53.59500 9.91686 827 ft 152 kts 50°
2026-05-07 20:01 53.60172 9.93041 633 ft 149 kts 50°
2026-05-07 20:01 53.60833 9.94372 412 ft 148 kts 50°
2026-05-07 20:02 53.61503 9.95710 238 ft 149 kts 50°
2026-05-07 20:02 53.62166 9.97052 52 ft 146 kts 50°
2026-05-07 20:02 53.62708 9.98153 51 ft 91 kts 50°
2026-05-07 20:02 53.62985 9.98716 50 ft 42 kts 50°
2026-05-07 20:03 53.63090 9.99034 52 ft 29 kts 82°
2026-05-07 20:03 53.63086 9.99272 50 ft 14 kts 95°
2026-05-07 20:03 53.63085 9.99309 55 ft 0 kts 90°
2026-05-07 20:03 53.63085 9.99313 49 ft 1 kts 89°
2026-05-07 20:04 53.63089 9.99350 51 ft 5 kts 72°
2026-05-07 20:04 53.63117 9.99441 47 ft 12 kts 59°
2026-05-07 20:04 53.63172 9.99567 47 ft 13 kts 51°
2026-05-07 20:04 53.63230 9.99681 50 ft 14 kts 45°
2026-05-07 20:05 53.63307 9.99816 53 ft 18 kts 52°
2026-05-07 20:05 53.63378 9.99963 50 ft 12 kts 50°
2026-05-07 20:05 53.63425 10.00063 50 ft 11 kts 63°
2026-05-07 20:05 53.63436 10.00142 54 ft 8 kts 90°
2026-05-07 20:06 53.63427 10.00247 51 ft 7 kts 99°
2026-05-07 20:06 53.63421 10.00309 55 ft 5 kts 100°
2026-05-07 20:06 53.63419 10.00326 57 ft 0 kts 100°
2026-05-07 20:06 53.63419 10.00330 55 ft 0 kts 100°